DAL1019 SBGR-SUMU

Flight info

Callsign DAL1019
Flight time 2h 16m
Altitude 34000
Route ZORZ3A UBSOD UZ38 VAGAL NELOX UM424 LDS LUCIO
Aircraft B738/M-VGDW/C

Departure

Time 2026-05-06 21:28
Airport São Paulo/Guarulhos–Governor André Franco Montoro International Airport (SBGR)

Arrival

Time 2026-05-06 23:44
Airport Carrasco General Cesáreo L. Berisso International Airport (SUMU)
Time Latitude Longitude Altitude Speed Heading
2026-05-06 21:22 -23.42899 -46.48867 2469 ft 0 kts 278°
2026-05-06 21:23 -23.42900 -46.48856 2469 ft 2 kts 278°
2026-05-06 21:23 -23.42903 -46.48837 2469 ft 3 kts 278°
2026-05-06 21:24 -23.42906 -46.48815 2469 ft 3 kts 278°
2026-05-06 21:24 -23.42908 -46.48799 2469 ft 3 kts 278°
2026-05-06 21:24 -23.42910 -46.48777 2469 ft 3 kts 278°
2026-05-06 21:24 -23.42911 -46.48773 2469 ft 2 kts 269°
2026-05-06 21:25 -23.42932 -46.48787 2469 ft 6 kts 184°
2026-05-06 21:25 -23.43020 -46.48796 2469 ft 17 kts 187°
2026-05-06 21:25 -23.43114 -46.48839 2469 ft 5 kts 245°
2026-05-06 21:25 -23.43132 -46.48843 2469 ft 2 kts 144°
2026-05-06 21:26 -23.43136 -46.48839 2469 ft 2 kts 130°
2026-05-06 21:26 -23.43144 -46.48799 2469 ft 10 kts 99°
2026-05-06 21:26 -23.43158 -46.48708 2469 ft 15 kts 99°
2026-05-06 21:26 -23.43176 -46.48583 2469 ft 17 kts 99°
2026-05-06 21:27 -23.43194 -46.48459 2469 ft 16 kts 99°
2026-05-06 21:27 -23.43237 -46.48384 2469 ft 13 kts 154°
2026-05-06 21:27 -23.43327 -46.48354 2469 ft 14 kts 164°
2026-05-06 21:27 -23.43419 -46.48315 2469 ft 13 kts 131°
2026-05-06 21:28 -23.43416 -46.48248 2469 ft 22 kts 73°
2026-05-06 21:28 -23.43272 -46.47729 2469 ft 122 kts 73°
2026-05-06 21:28 -23.42943 -46.46516 2576 ft 201 kts 74°
2026-05-06 21:28 -23.42561 -46.44943 3306 ft 218 kts 75°
2026-05-06 21:29 -23.42153 -46.43346 4059 ft 225 kts 74°
2026-05-06 21:29 -23.41684 -46.41670 4835 ft 242 kts 72°
2026-05-06 21:29 -23.41149 -46.39893 5489 ft 248 kts 71°
2026-05-06 21:29 -23.40624 -46.38104 6117 ft 249 kts 75°
2026-05-06 21:30 -23.40479 -46.36233 6746 ft 254 kts 91°
2026-05-06 21:30 -23.40724 -46.34298 7385 ft 258 kts 101°
2026-05-06 21:30 -23.41186 -46.32375 7851 ft 268 kts 106°
2026-05-06 21:30 -23.41759 -46.30482 8340 ft 264 kts 108°
2026-05-06 21:31 -23.42394 -46.28583 8845 ft 267 kts 109°
2026-05-06 21:31 -23.43106 -46.26697 9346 ft 271 kts 117°
2026-05-06 21:31 -23.44307 -46.25159 9824 ft 273 kts 147°
2026-05-06 21:31 -23.46114 -46.24557 10339 ft 276 kts 176°
2026-05-06 21:32 -23.48126 -46.24701 10775 ft 308 kts 188°
2026-05-06 21:32 -23.52853 -46.26004 11595 ft 383 kts 200°
2026-05-06 21:32 -23.55171 -46.27447 11962 ft 384 kts 222°
2026-05-06 21:33 -23.56771 -46.29732 12352 ft 388 kts 242°
2026-05-06 21:33 -23.57810 -46.32473 12743 ft 396 kts 252°
2026-05-06 21:33 -23.58489 -46.35398 13125 ft 400 kts 258°
2026-05-06 21:33 -23.58961 -46.38393 13505 ft 402 kts 261°
2026-05-06 21:34 -23.59335 -46.41426 13883 ft 405 kts 262°
2026-05-06 21:34 -23.59681 -46.44481 14260 ft 407 kts 262°
2026-05-06 21:34 -23.60047 -46.47550 14636 ft 409 kts 261°
2026-05-06 21:34 -23.60463 -46.50631 15013 ft 411 kts 260°
2026-05-06 21:35 -23.60918 -46.53723 15390 ft 413 kts 259°
2026-05-06 21:35 -23.61396 -46.56825 15767 ft 415 kts 259°
2026-05-06 21:35 -23.61884 -46.59932 16143 ft 417 kts 259°
2026-05-06 21:35 -23.62460 -46.63037 16519 ft 418 kts 254°
2026-05-06 21:36 -23.63372 -46.66007 16894 ft 419 kts 247°
2026-05-06 21:36 -23.64586 -46.68904 17275 ft 420 kts 242°
2026-05-06 21:36 -23.66006 -46.71698 17659 ft 421 kts 238°
2026-05-06 21:36 -23.67567 -46.74410 18042 ft 422 kts 235°
2026-05-06 21:37 -23.69264 -46.77027 18419 ft 422 kts 229°
2026-05-06 21:37 -23.71324 -46.79324 18799 ft 422 kts 220°
2026-05-06 21:37 -23.73601 -46.81283 19175 ft 423 kts 214°
2026-05-06 21:37 -23.76055 -46.83083 19555 ft 425 kts 211°
2026-05-06 21:38 -23.78588 -46.84766 19937 ft 427 kts 210°
2026-05-06 21:38 -23.81166 -46.86387 20315 ft 429 kts 209°
2026-05-06 21:38 -23.83789 -46.87991 20693 ft 431 kts 208°
2026-05-06 21:38 -23.86419 -46.89579 21068 ft 433 kts 208°
2026-05-06 21:39 -23.89064 -46.91176 21445 ft 435 kts 208°
2026-05-06 21:39 -23.91728 -46.92789 21822 ft 437 kts 208°
2026-05-06 21:39 -23.94392 -46.94413 22199 ft 439 kts 209°
2026-05-06 21:39 -23.97030 -46.96032 22570 ft 442 kts 209°
2026-05-06 21:40 -23.99715 -46.97691 22947 ft 443 kts 209°
2026-05-06 21:40 -24.02408 -46.99366 23325 ft 445 kts 210°
2026-05-06 21:40 -24.05108 -47.01053 23702 ft 447 kts 210°
2026-05-06 21:40 -24.07816 -47.02755 24079 ft 449 kts 210°
2026-05-06 21:41 -24.10526 -47.04464 24455 ft 450 kts 210°
2026-05-06 21:41 -24.13248 -47.06186 24833 ft 452 kts 210°
2026-05-06 21:41 -24.15940 -47.07894 25205 ft 453 kts 210°
2026-05-06 21:41 -24.18679 -47.09634 25584 ft 454 kts 210°
2026-05-06 21:42 -24.21415 -47.11376 25960 ft 454 kts 210°
2026-05-06 21:42 -24.24151 -47.13137 26337 ft 455 kts 211°
2026-05-06 21:42 -24.26864 -47.14935 26714 ft 456 kts 212°
2026-05-06 21:42 -24.29568 -47.16762 27091 ft 456 kts 212°
2026-05-06 21:43 -24.32228 -47.18583 27462 ft 457 kts 212°
2026-05-06 21:43 -24.34923 -47.20441 27838 ft 457 kts 212°
2026-05-06 21:43 -24.37619 -47.22309 28215 ft 457 kts 212°
2026-05-06 21:43 -24.40305 -47.24175 28590 ft 457 kts 212°
2026-05-06 21:44 -24.42988 -47.26042 28966 ft 456 kts 212°
2026-05-06 21:44 -24.45661 -47.27905 29341 ft 454 kts 212°
2026-05-06 21:44 -24.48325 -47.29763 29716 ft 453 kts 212°
2026-05-06 21:44 -24.50980 -47.31616 30091 ft 451 kts 213°
2026-05-06 21:45 -24.53619 -47.33458 30465 ft 448 kts 213°
2026-05-06 21:45 -24.56247 -47.35292 30840 ft 446 kts 213°
2026-05-06 21:45 -24.58821 -47.37090 31209 ft 443 kts 213°
2026-05-06 21:45 -24.61420 -47.38906 31582 ft 440 kts 213°
2026-05-06 21:46 -24.63996 -47.40706 31956 ft 437 kts 213°
2026-05-06 21:46 -24.66556 -47.42496 32329 ft 432 kts 213°
2026-05-06 21:46 -24.69075 -47.44258 32702 ft 425 kts 213°
2026-05-06 21:46 -24.71549 -47.45988 33073 ft 418 kts 213°
2026-05-06 21:47 -24.73988 -47.47695 33446 ft 413 kts 213°
2026-05-06 21:47 -24.76411 -47.49391 33820 ft 410 kts 213°
2026-05-06 21:47 -24.78788 -47.51057 34110 ft 410 kts 213°
2026-05-06 21:47 -24.81205 -47.52751 34209 ft 414 kts 213°
2026-05-06 21:48 -24.86117 -47.56198 34221 ft 420 kts 213°
2026-05-06 21:48 -24.91041 -47.59656 34218 ft 418 kts 213°
2026-05-06 21:49 -24.95936 -47.63095 34218 ft 415 kts 213°
2026-05-06 21:49 -25.00814 -47.66525 34218 ft 415 kts 213°
2026-05-06 21:50 -25.05665 -47.69940 34219 ft 416 kts 213°
2026-05-06 21:50 -25.10546 -47.73380 34219 ft 416 kts 214°
2026-05-06 21:51 -25.15426 -47.76822 34219 ft 416 kts 214°
2026-05-06 21:51 -25.20305 -47.80267 34220 ft 416 kts 214°
2026-05-06 21:52 -25.25177 -47.83711 34220 ft 416 kts 214°
2026-05-06 21:52 -25.30047 -47.87158 34201 ft 416 kts 214°
2026-05-06 21:53 -25.34901 -47.90594 34130 ft 416 kts 214°
2026-05-06 21:53 -25.39771 -47.94044 34118 ft 415 kts 214°
2026-05-06 21:54 -25.44642 -47.97499 34129 ft 415 kts 214°
2026-05-06 21:54 -25.49512 -48.00959 34154 ft 415 kts 214°
2026-05-06 21:55 -25.54352 -48.04401 34156 ft 416 kts 214°
2026-05-06 21:55 -25.59216 -48.07867 34156 ft 416 kts 214°
2026-05-06 21:56 -25.64084 -48.11332 34153 ft 415 kts 214°
2026-05-06 21:56 -25.68135 -48.14213 34150 ft 415 kts 214°
2026-05-06 21:57 -25.73003 -48.17675 34146 ft 415 kts 214°
2026-05-06 21:57 -25.77873 -48.21143 34142 ft 415 kts 214°
2026-05-06 21:58 -25.82745 -48.24616 34137 ft 415 kts 214°
2026-05-06 21:58 -25.87575 -48.28064 34132 ft 415 kts 214°
2026-05-06 21:59 -25.92441 -48.31540 34126 ft 415 kts 214°
2026-05-06 21:59 -25.97308 -48.35022 34120 ft 415 kts 214°
2026-05-06 22:00 -26.02170 -48.38505 34113 ft 415 kts 214°
2026-05-06 22:00 -26.07006 -48.41971 34107 ft 415 kts 214°
2026-05-06 22:01 -26.11864 -48.45458 34102 ft 415 kts 214°
2026-05-06 22:01 -26.16723 -48.48950 34097 ft 415 kts 214°
2026-05-06 22:02 -26.21576 -48.52442 34093 ft 415 kts 215°
2026-05-06 22:02 -26.26432 -48.55939 34083 ft 416 kts 215°
2026-05-06 22:03 -26.31290 -48.59439 34081 ft 415 kts 215°
2026-05-06 22:03 -26.36143 -48.62940 34081 ft 415 kts 215°
2026-05-06 22:04 -26.40970 -48.66428 34081 ft 416 kts 215°
2026-05-06 22:04 -26.45820 -48.69946 34081 ft 416 kts 215°
2026-05-06 22:05 -26.50666 -48.73492 34082 ft 416 kts 215°
2026-05-06 22:05 -26.55502 -48.77049 34082 ft 416 kts 216°
2026-05-06 22:06 -26.60297 -48.80588 34082 ft 416 kts 216°
2026-05-06 22:06 -26.65132 -48.84157 34087 ft 416 kts 216°
2026-05-06 22:07 -26.69977 -48.87707 34087 ft 416 kts 215°
2026-05-06 22:07 -26.74802 -48.91231 34087 ft 416 kts 215°
2026-05-06 22:08 -26.79659 -48.94779 34087 ft 416 kts 215°
2026-05-06 22:08 -26.84518 -48.98331 34087 ft 416 kts 216°
2026-05-06 22:09 -26.89341 -49.01862 34088 ft 416 kts 216°
2026-05-06 22:09 -26.94188 -49.05415 34089 ft 416 kts 216°
2026-05-06 22:10 -26.99041 -49.08976 34090 ft 416 kts 216°
2026-05-06 22:10 -27.03893 -49.12540 34091 ft 416 kts 216°
2026-05-06 22:11 -27.08702 -49.16078 34092 ft 416 kts 216°
2026-05-06 22:11 -27.13550 -49.19647 34092 ft 416 kts 216°
2026-05-06 22:12 -27.18394 -49.23217 34093 ft 415 kts 216°
2026-05-06 22:12 -27.23201 -49.26764 34093 ft 415 kts 216°
2026-05-06 22:13 -27.28041 -49.30340 34086 ft 416 kts 216°
2026-05-06 22:13 -27.32878 -49.33918 34084 ft 416 kts 216°
2026-05-06 22:14 -27.37684 -49.37476 34085 ft 416 kts 216°
2026-05-06 22:14 -27.42517 -49.41059 34086 ft 416 kts 216°
2026-05-06 22:15 -27.47363 -49.44655 34086 ft 416 kts 216°
2026-05-06 22:15 -27.52164 -49.48223 34087 ft 416 kts 216°
2026-05-06 22:16 -27.57011 -49.51820 34087 ft 416 kts 216°
2026-05-06 22:16 -27.61851 -49.55408 34088 ft 416 kts 216°
2026-05-06 22:17 -27.66657 -49.58973 34089 ft 415 kts 216°
2026-05-06 22:17 -27.71494 -49.62563 34093 ft 415 kts 216°
2026-05-06 22:18 -27.76362 -49.66101 34095 ft 416 kts 216°
2026-05-06 22:18 -27.81219 -49.69581 34096 ft 416 kts 215°
2026-05-06 22:19 -27.86124 -49.73082 34097 ft 416 kts 215°
2026-05-06 22:19 -27.91022 -49.76577 34099 ft 416 kts 215°
2026-05-06 22:20 -27.95927 -49.80081 34100 ft 416 kts 215°
2026-05-06 22:20 -28.00796 -49.83564 34102 ft 416 kts 215°
2026-05-06 22:21 -28.05694 -49.87071 34104 ft 416 kts 215°
2026-05-06 22:21 -28.10586 -49.90579 34105 ft 416 kts 215°
2026-05-06 22:22 -28.15480 -49.94093 34107 ft 416 kts 215°
2026-05-06 22:22 -28.20374 -49.97611 34109 ft 416 kts 215°
2026-05-06 22:23 -28.25243 -50.01115 34111 ft 416 kts 215°
2026-05-06 22:23 -28.30133 -50.04637 34117 ft 416 kts 216°
2026-05-06 22:24 -28.35020 -50.08162 34120 ft 416 kts 216°
2026-05-06 22:24 -28.39905 -50.11690 34122 ft 416 kts 216°
2026-05-06 22:25 -28.44757 -50.15197 34123 ft 415 kts 216°
2026-05-06 22:25 -28.49645 -50.18735 34125 ft 416 kts 216°
2026-05-06 22:26 -28.54494 -50.22249 34127 ft 416 kts 216°
2026-05-06 22:26 -28.59378 -50.25794 34128 ft 416 kts 216°
2026-05-06 22:27 -28.64260 -50.29340 34129 ft 416 kts 216°
2026-05-06 22:27 -28.69145 -50.32896 34130 ft 416 kts 216°
2026-05-06 22:28 -28.73887 -50.36587 34133 ft 415 kts 219°
2026-05-06 22:28 -28.78561 -50.40458 34133 ft 415 kts 219°
2026-05-06 22:29 -28.83200 -50.44394 34134 ft 415 kts 220°
2026-05-06 22:29 -28.87797 -50.48328 34135 ft 415 kts 220°
2026-05-06 22:30 -28.92414 -50.52287 34136 ft 415 kts 220°
2026-05-06 22:30 -28.97039 -50.56258 34137 ft 415 kts 220°
2026-05-06 22:31 -29.01628 -50.60198 34137 ft 415 kts 220°
2026-05-06 22:31 -29.06253 -50.64171 34138 ft 415 kts 220°
2026-05-06 22:32 -29.10928 -50.68069 34139 ft 417 kts 217°
2026-05-06 22:32 -29.16003 -50.71374 34140 ft 421 kts 212°
2026-05-06 22:33 -29.21236 -50.74327 34126 ft 423 kts 211°
2026-05-06 22:33 -29.26569 -50.77191 34111 ft 423 kts 210°
2026-05-06 22:34 -29.31920 -50.80029 34108 ft 423 kts 210°
2026-05-06 22:34 -29.37266 -50.82865 34105 ft 423 kts 210°
2026-05-06 22:35 -29.42611 -50.85712 34098 ft 423 kts 210°
2026-05-06 22:35 -29.47925 -50.88554 34089 ft 424 kts 210°
2026-05-06 22:36 -29.53276 -50.91425 34076 ft 424 kts 210°
2026-05-06 22:36 -29.58629 -50.94306 34061 ft 425 kts 211°
2026-05-06 22:37 -29.63986 -50.97195 34043 ft 425 kts 211°
2026-05-06 22:37 -29.69317 -51.00074 34024 ft 425 kts 211°
2026-05-06 22:38 -29.74683 -51.02977 34004 ft 426 kts 211°
2026-05-06 22:38 -29.80048 -51.05883 33990 ft 426 kts 211°
2026-05-06 22:39 -29.85418 -51.08797 33978 ft 426 kts 211°
2026-05-06 22:39 -29.90751 -51.11694 33970 ft 427 kts 211°
2026-05-06 22:40 -29.96124 -51.14622 33965 ft 426 kts 212°
2026-05-06 22:40 -30.01389 -51.17762 33964 ft 425 kts 214°
2026-05-06 22:41 -30.09128 -51.22771 33963 ft 425 kts 215°
2026-05-06 22:42 -30.14258 -51.26177 33963 ft 425 kts 216°
2026-05-06 22:42 -30.19348 -51.29575 33964 ft 425 kts 216°
2026-05-06 22:43 -30.24483 -51.33007 33965 ft 426 kts 216°
2026-05-06 22:43 -30.29618 -51.36440 33965 ft 426 kts 216°
2026-05-06 22:44 -30.33892 -51.39298 33966 ft 426 kts 216°
2026-05-06 22:44 -30.39873 -51.43299 33967 ft 426 kts 216°
2026-05-06 22:45 -30.44151 -51.46163 33964 ft 427 kts 216°
2026-05-06 22:45 -30.49291 -51.49608 33959 ft 426 kts 216°
2026-05-06 22:46 -30.54439 -51.53049 33958 ft 427 kts 216°
2026-05-06 22:46 -30.59600 -51.56481 33957 ft 427 kts 216°
2026-05-06 22:47 -30.64719 -51.59895 33956 ft 427 kts 216°
2026-05-06 22:47 -30.69868 -51.63344 33955 ft 426 kts 216°
2026-05-06 22:48 -30.75014 -51.66799 33953 ft 426 kts 216°
2026-05-06 22:48 -30.80121 -51.70232 33951 ft 425 kts 216°
2026-05-06 22:49 -30.85252 -51.73687 33950 ft 425 kts 216°
2026-05-06 22:49 -30.90372 -51.77140 33948 ft 425 kts 216°
2026-05-06 22:50 -30.95463 -51.80578 33947 ft 425 kts 216°
2026-05-06 22:50 -31.00578 -51.84037 33946 ft 425 kts 216°
2026-05-06 22:51 -31.05691 -51.87500 33944 ft 424 kts 216°
2026-05-06 22:51 -31.10797 -51.90962 33943 ft 424 kts 216°
2026-05-06 22:52 -31.15903 -51.94428 33942 ft 424 kts 216°
2026-05-06 22:52 -31.20973 -51.97874 33940 ft 424 kts 216°
2026-05-06 22:53 -31.26078 -52.01348 33939 ft 424 kts 216°
2026-05-06 22:53 -31.31178 -52.04823 33938 ft 424 kts 216°
2026-05-06 22:54 -31.36282 -52.08307 33937 ft 424 kts 216°
2026-05-06 22:54 -31.41377 -52.11789 33935 ft 424 kts 216°
2026-05-06 22:55 -31.46444 -52.15256 33934 ft 424 kts 216°
2026-05-06 22:55 -31.51540 -52.18747 33934 ft 424 kts 216°
2026-05-06 22:56 -31.56626 -52.22236 33938 ft 425 kts 216°
2026-05-06 22:56 -31.61776 -52.25783 33950 ft 432 kts 216°
2026-05-06 22:57 -31.67007 -52.29396 33939 ft 437 kts 216°
2026-05-06 22:57 -31.72152 -52.33000 33933 ft 430 kts 217°
2026-05-06 22:58 -31.77200 -52.36665 33932 ft 424 kts 218°
2026-05-06 22:58 -31.82187 -52.40348 33933 ft 422 kts 218°
2026-05-06 22:59 -31.87153 -52.44043 33933 ft 422 kts 218°
2026-05-06 22:59 -31.92124 -52.47753 33933 ft 422 kts 218°
2026-05-06 23:00 -31.97045 -52.51431 33933 ft 422 kts 218°
2026-05-06 23:00 -32.02006 -52.55142 33932 ft 422 kts 218°
2026-05-06 23:01 -32.06979 -52.58866 33931 ft 422 kts 218°
2026-05-06 23:01 -32.11917 -52.62569 33930 ft 423 kts 218°
2026-05-06 23:02 -32.16896 -52.66305 33928 ft 424 kts 218°
2026-05-06 23:02 -32.21876 -52.70047 33928 ft 424 kts 218°
2026-05-06 23:03 -32.26864 -52.73812 33924 ft 427 kts 218°
2026-05-06 23:03 -32.31938 -52.77640 33972 ft 437 kts 218°
2026-05-06 23:04 -32.37078 -52.81515 33938 ft 443 kts 218°
2026-05-06 23:04 -32.42238 -52.85402 33915 ft 435 kts 218°
2026-05-06 23:05 -32.47317 -52.89230 33911 ft 429 kts 219°
2026-05-06 23:05 -32.52347 -52.93035 33909 ft 428 kts 219°
2026-05-06 23:06 -32.57334 -52.96821 33907 ft 429 kts 219°
2026-05-06 23:06 -32.62363 -53.00647 33904 ft 429 kts 219°
2026-05-06 23:07 -32.67406 -53.04487 33901 ft 430 kts 219°
2026-05-06 23:07 -32.72378 -53.08415 33901 ft 428 kts 221°
2026-05-06 23:08 -32.77149 -53.12556 33897 ft 427 kts 223°
2026-05-06 23:08 -32.81884 -53.16826 33894 ft 427 kts 223°
2026-05-06 23:09 -32.86598 -53.21133 33892 ft 427 kts 223°
2026-05-06 23:09 -32.91310 -53.25458 33890 ft 428 kts 224°
2026-05-06 23:10 -32.96026 -53.29795 33888 ft 428 kts 224°
2026-05-06 23:10 -33.00719 -53.34114 33887 ft 428 kts 224°
2026-05-06 23:11 -33.05435 -53.38459 33885 ft 429 kts 224°
2026-05-06 23:11 -33.10164 -53.42819 33884 ft 429 kts 224°
2026-05-06 23:12 -33.14902 -53.47192 33883 ft 430 kts 224°
2026-05-06 23:12 -33.19603 -53.51536 33881 ft 430 kts 224°
2026-05-06 23:13 -33.24340 -53.55919 33880 ft 431 kts 224°
2026-05-06 23:13 -33.29085 -53.60315 33878 ft 431 kts 224°
2026-05-06 23:14 -33.33830 -53.64717 33877 ft 432 kts 224°
2026-05-06 23:14 -33.38585 -53.69135 33875 ft 432 kts 224°
2026-05-06 23:15 -33.43314 -53.73534 33874 ft 433 kts 224°
2026-05-06 23:15 -33.48074 -53.77968 33872 ft 433 kts 224°
2026-05-06 23:16 -33.52836 -53.82411 33866 ft 433 kts 224°
2026-05-06 23:16 -33.55214 -53.84631 33764 ft 433 kts 224°
2026-05-06 23:16 -33.57573 -53.86837 33384 ft 437 kts 224°
2026-05-06 23:16 -33.59968 -53.89079 32904 ft 435 kts 224°
2026-05-06 23:17 -33.62339 -53.91294 32406 ft 429 kts 224°
2026-05-06 23:17 -33.64680 -53.93481 31904 ft 424 kts 224°
2026-05-06 23:17 -33.67007 -53.95656 31400 ft 420 kts 224°
2026-05-06 23:17 -33.69249 -53.97890 30896 ft 413 kts 230°
2026-05-06 23:18 -33.70931 -54.00538 30406 ft 399 kts 245°
2026-05-06 23:18 -33.72053 -54.03561 29917 ft 393 kts 253°
2026-05-06 23:18 -33.72889 -54.06679 29424 ft 390 kts 257°
2026-05-06 23:18 -33.73597 -54.09816 28928 ft 388 kts 258°
2026-05-06 23:19 -33.74254 -54.12957 28428 ft 386 kts 258°
2026-05-06 23:19 -33.74928 -54.16076 27927 ft 384 kts 258°
2026-05-06 23:19 -33.75650 -54.19167 27426 ft 383 kts 256°
2026-05-06 23:19 -33.76454 -54.22164 26933 ft 381 kts 254°
2026-05-06 23:20 -33.77382 -54.25142 26434 ft 380 kts 252°
2026-05-06 23:20 -33.78421 -54.28054 25937 ft 379 kts 249°
2026-05-06 23:20 -33.79560 -54.30901 25439 ft 378 kts 247°
2026-05-06 23:20 -33.80794 -54.33711 24942 ft 385 kts 245°
2026-05-06 23:21 -33.82150 -54.36577 24449 ft 403 kts 244°
2026-05-06 23:21 -33.83636 -54.39517 23955 ft 417 kts 242°
2026-05-06 23:21 -33.85219 -54.42482 23460 ft 423 kts 241°
2026-05-06 23:21 -33.86859 -54.45423 22962 ft 424 kts 240°
2026-05-06 23:22 -33.88528 -54.48321 22460 ft 416 kts 239°
2026-05-06 23:22 -33.90168 -54.51093 21954 ft 397 kts 239°
2026-05-06 23:22 -33.91751 -54.53723 21447 ft 379 kts 238°
2026-05-06 23:22 -33.93281 -54.56238 20940 ft 365 kts 238°
2026-05-06 23:23 -33.94759 -54.58655 20435 ft 353 kts 238°
2026-05-06 23:23 -33.96198 -54.61000 19928 ft 342 kts 238°
2026-05-06 23:23 -33.97580 -54.63246 19430 ft 333 kts 238°
2026-05-06 23:23 -33.98944 -54.65458 18927 ft 325 kts 238°
2026-05-06 23:24 -34.00281 -54.67623 18423 ft 318 kts 238°
2026-05-06 23:24 -34.01590 -54.69737 17920 ft 311 kts 238°
2026-05-06 23:24 -34.02877 -54.71813 17416 ft 306 kts 238°
2026-05-06 23:24 -34.04142 -54.73851 16913 ft 301 kts 238°
2026-05-06 23:25 -34.05391 -54.75860 16410 ft 297 kts 238°
2026-05-06 23:25 -34.06626 -54.77844 15908 ft 294 kts 238°
2026-05-06 23:25 -34.07851 -54.79812 15405 ft 292 kts 238°
2026-05-06 23:25 -34.09068 -54.81766 14902 ft 290 kts 238°
2026-05-06 23:26 -34.10259 -54.83677 14408 ft 288 kts 238°
2026-05-06 23:26 -34.11466 -54.85614 13907 ft 287 kts 238°
2026-05-06 23:26 -34.12671 -54.87545 13401 ft 287 kts 238°
2026-05-06 23:26 -34.13872 -54.89470 12901 ft 287 kts 238°
2026-05-06 23:27 -34.15072 -54.91393 12399 ft 286 kts 238°
2026-05-06 23:27 -34.16269 -54.93314 11900 ft 287 kts 238°
2026-05-06 23:27 -34.17470 -54.95238 11398 ft 287 kts 238°
2026-05-06 23:27 -34.18670 -54.97162 10945 ft 285 kts 238°
2026-05-06 23:28 -34.19449 -54.98405 10868 ft 276 kts 238°
2026-05-06 23:28 -34.20944 -55.00785 10811 ft 257 kts 238°
2026-05-06 23:28 -34.22003 -55.02475 10809 ft 248 kts 239°
2026-05-06 23:28 -34.23021 -55.04108 10813 ft 245 kts 239°
2026-05-06 23:29 -34.24044 -55.05758 10815 ft 246 kts 239°
2026-05-06 23:29 -34.25071 -55.07416 10815 ft 247 kts 239°
2026-05-06 23:29 -34.25766 -55.08540 10814 ft 247 kts 239°
2026-05-06 23:29 -34.27137 -55.10753 10817 ft 249 kts 239°
2026-05-06 23:30 -34.28180 -55.12437 10805 ft 250 kts 239°
2026-05-06 23:30 -34.28873 -55.13554 10803 ft 250 kts 239°
2026-05-06 23:30 -34.29918 -55.15237 10800 ft 250 kts 239°
2026-05-06 23:30 -34.31302 -55.17468 10800 ft 250 kts 239°
2026-05-06 23:31 -34.32343 -55.19146 10800 ft 250 kts 239°
2026-05-06 23:31 -34.33386 -55.20827 10800 ft 250 kts 239°
2026-05-06 23:31 -34.34090 -55.21963 10800 ft 250 kts 239°
2026-05-06 23:31 -34.35143 -55.23667 10558 ft 259 kts 239°
2026-05-06 23:32 -34.36226 -55.25429 10067 ft 267 kts 239°
2026-05-06 23:32 -34.37357 -55.27258 9559 ft 269 kts 239°
2026-05-06 23:32 -34.38483 -55.29077 9060 ft 271 kts 239°
2026-05-06 23:32 -34.39607 -55.30891 8570 ft 273 kts 239°
2026-05-06 23:33 -34.40750 -55.32738 8071 ft 275 kts 239°
2026-05-06 23:33 -34.41901 -55.34598 7574 ft 277 kts 239°
2026-05-06 23:33 -34.43059 -55.36473 7079 ft 279 kts 239°
2026-05-06 23:33 -34.44225 -55.38363 6577 ft 281 kts 239°
2026-05-06 23:34 -34.45395 -55.40259 6075 ft 282 kts 239°
2026-05-06 23:34 -34.45804 -55.40923 5903 ft 282 kts 239°
2026-05-06 23:34 -34.46921 -55.42733 5431 ft 283 kts 239°
2026-05-06 23:34 -34.47690 -55.43981 5135 ft 283 kts 239°
2026-05-06 23:35 -34.48833 -55.45823 5168 ft 256 kts 239°
2026-05-06 23:35 -34.49873 -55.47487 5034 ft 243 kts 239°
2026-05-06 23:35 -34.50873 -55.49102 4996 ft 236 kts 239°
2026-05-06 23:35 -34.51851 -55.50693 4995 ft 234 kts 240°
2026-05-06 23:36 -34.52820 -55.52275 5000 ft 233 kts 240°
2026-05-06 23:36 -34.53778 -55.53843 4995 ft 234 kts 240°
2026-05-06 23:36 -34.54750 -55.55434 4991 ft 234 kts 240°
2026-05-06 23:36 -34.55720 -55.57018 4989 ft 234 kts 240°
2026-05-06 23:37 -34.56691 -55.58604 4995 ft 234 kts 240°
2026-05-06 23:37 -34.57663 -55.60193 4991 ft 234 kts 240°
2026-05-06 23:37 -34.58637 -55.61783 4998 ft 234 kts 240°
2026-05-06 23:37 -34.59612 -55.63373 4997 ft 234 kts 240°
2026-05-06 23:38 -34.60577 -55.64949 4995 ft 235 kts 240°
2026-05-06 23:38 -34.61549 -55.66537 4992 ft 234 kts 240°
2026-05-06 23:38 -34.62520 -55.68124 4994 ft 234 kts 240°
2026-05-06 23:38 -34.63492 -55.69712 4992 ft 234 kts 240°
2026-05-06 23:39 -34.64464 -55.71302 4993 ft 234 kts 240°
2026-05-06 23:39 -34.65438 -55.72895 4989 ft 234 kts 240°
2026-05-06 23:39 -34.66411 -55.74489 4988 ft 235 kts 240°
2026-05-06 23:39 -34.67383 -55.76080 4989 ft 235 kts 240°
2026-05-06 23:40 -34.68382 -55.77653 5015 ft 235 kts 237°
2026-05-06 23:40 -34.69431 -55.79158 4895 ft 232 kts 236°
2026-05-06 23:40 -34.70436 -55.80701 4476 ft 233 kts 239°
2026-05-06 23:40 -34.71367 -55.82297 3983 ft 230 kts 242°
2026-05-06 23:41 -34.72248 -55.83900 3546 ft 226 kts 242°
2026-05-06 23:41 -34.73107 -55.85450 3201 ft 222 kts 242°
2026-05-06 23:41 -34.73990 -55.86968 2908 ft 217 kts 240°
2026-05-06 23:41 -34.74879 -55.88433 2652 ft 214 kts 239°
2026-05-06 23:42 -34.75763 -55.89875 2423 ft 208 kts 238°
2026-05-06 23:42 -34.76613 -55.91260 2163 ft 203 kts 238°
2026-05-06 23:42 -34.77450 -55.92639 1846 ft 201 kts 238°
2026-05-06 23:42 -34.78274 -55.93998 1598 ft 197 kts 237°
2026-05-06 23:43 -34.79060 -55.95288 1344 ft 185 kts 235°
2026-05-06 23:43 -34.79801 -55.96532 1077 ft 177 kts 234°
2026-05-06 23:43 -34.80517 -55.97703 852 ft 171 kts 233°
2026-05-06 23:43 -34.81239 -55.98847 647 ft 170 kts 232°
2026-05-06 23:44 -34.81952 -55.99998 429 ft 170 kts 233°
2026-05-06 23:44 -34.82659 -56.01154 202 ft 170 kts 233°
2026-05-06 23:44 -34.83331 -56.02253 115 ft 142 kts 233°
2026-05-06 23:44 -34.83756 -56.02884 115 ft 36 kts 187°
2026-05-06 23:45 -34.83857 -56.02845 115 ft 16 kts 166°
2026-05-06 23:45 -34.83938 -56.02760 115 ft 16 kts 89°
2026-05-06 23:45 -34.83930 -56.02624 115 ft 16 kts 87°
2026-05-06 23:45 -34.83928 -56.02483 115 ft 17 kts 89°
2026-05-06 23:46 -34.83927 -56.02331 115 ft 18 kts 91°
2026-05-06 23:46 -34.83886 -56.02228 115 ft 13 kts
2026-05-06 23:46 -34.83799 -56.02224 115 ft 13 kts
2026-05-06 23:46 -34.83726 -56.02173 115 ft 13 kts 51°
2026-05-06 23:47 -34.83671 -56.02087 115 ft 12 kts 52°
2026-05-06 23:47 -34.83623 -56.02012 115 ft 10 kts 52°
2026-05-06 23:47 -34.83587 -56.01925 115 ft 12 kts 96°
2026-05-06 23:47 -34.83617 -56.01883 115 ft 6 kts 143°
2026-05-06 23:48 -34.83628 -56.01873 115 ft 0 kts 144°